Weather in Amut

Russia / Khabarovsk Krai     50°45′00″N   136°16′48″E
temp.,
°C
wind,
m/s
gust,
m/s
humid.,
%
clouds,
%
prec.,
mm/h
press.,
hPa
HPBL,
m
27 february, sat
sat2701:00−17ssw22890 0.0 103122
04:00−17ssw22820 0.0 103121
07:00−17ssw23790 0.0 103228
10:00−12sw238110 0.0 1030148
13:00−8sw2275100 0.0 1028570
16:00−8sw3574100 0.0 1025630
19:00−12ssw3583100 0.1 1023152
22:00−13s4972100 0.1 1019343
28 february, sun
sun2801:00−14ssw41180100 0.0 1016495
04:00−15ssw3590100 0.0 1013137
07:00−15sw2292100 0.0 101355
10:00−10w1185100 0.0 1012104
13:00−7nnw2375100 0.0 1013738
16:00−9nw4771100 0.1 1013811
19:00−17nw2107934 0.0 1017279
22:00−21nw247617 0.0 102087
1 march, mon
mon101:00−23sw11760 0.0 102220
04:00−24ssw12770 0.0 102420
07:00−25sw117812 0.0 102520
10:00−20w26669 0.0 1026629
13:00−18wnw48640 0.0 10251219
16:00−18wnw59680 0.0 1025993
19:00−24wnw25810 0.0 1027120
22:00−26ssw11770 0.0 102820
2 march, tue
tue201:00−27sw12780 0.0 102921
04:00−27sw12680 0.0 103021
07:00−28sw12630 0.0 103121
10:00−22w26610 0.0 1031563
13:00−19wnw35590 0.0 10291242
16:00−19nw48670 0.0 10281195
19:00−25ssw01830 0.0 103020
22:00−25s22750 0.0 103120
3 march, wed
wed301:00−25ssw22860 0.0 103021
04:00−25ssw22780 0.0 102923
07:00−24ssw22690 0.0 102822
10:00−18ssw237327 0.0 1026187
13:00−14sw497599 0.0 1022823
16:00−14ssw4117589 0.0 1019709
19:00−17ssw5157982 0.0 1017473
22:00−18ssw4147690 0.0 1016506